When you browse on this site, cookies collect data to enhance your experience and personalize the content and advertising you see.
Visit our Privacy Policy to learn more. By continuing to use the site, you agree to this use of cookies and data.
  • In Portugal
  • List of Countries
  • For 7 days
  • Water Temperature
  • Weather Map
  • Weather Widgets
  • user-avatar
    Login

    Hourly Weather Sergievskoe

    Today, 31 May, Sunday

    Time Temperature Precipitation Wind Pressure Humidity
    00:00 +12°C° 1 mm 7 mps 740 mmHg 80%
    01:00 +11°C° 1 mm 7 mps 740 mmHg 84%
    02:00 +11°C° 1 mm 7 mps 740 mmHg 89%
    03:00 +10°C° 1.6 mm 7 mps 740 mmHg 88%
    04:00 +10°C° 1.6 mm 7 mps 740 mmHg 87%
    05:00 +10°C° 1.6 mm 7 mps 740 mmHg 86%
    06:00 +10°C° 0.5 mm 7 mps 740 mmHg 82%
    07:00 +11°C° 0.5 mm 7 mps 741 mmHg 78%
    08:00 +11°C° 0.5 mm 7 mps 741 mmHg 74%
    09:00 +12°C° 0 mm 7 mps 741 mmHg 68%
    10:00 +14°C° 0 mm 7 mps 742 mmHg 62%
    11:00 +15°C° 0 mm 7 mps 742 mmHg 56%
    12:00 +15°C° 0.1 mm 7 mps 742 mmHg 57%
    13:00 +15°C° 0.1 mm 7 mps 742 mmHg 58%
    14:00 +15°C° 0.1 mm 7 mps 743 mmHg 58%
    15:00 +14°C° 0.1 mm 7 mps 743 mmHg 60%
    16:00 +14°C° 0.1 mm 6 mps 743 mmHg 61%
    17:00 +13°C° 0.1 mm 6 mps 743 mmHg 62%
    18:00 +12°C° 0 mm 5 mps 743 mmHg 65%
    19:00 +9°C° 0 mm 5 mps 743 mmHg 68%
    20:00 +8°C° 0 mm 4 mps 743 mmHg 72%
    21:00 +7°C° 0 mm 4 mps 744 mmHg 73%
    22:00 +6°C° 0 mm 4 mps 744 mmHg 74%
    23:00 +5°C° 0 mm 4 mps 744 mmHg 75%

    Tomorrow, 1 June, Monday

    Time Temperature Precipitation Wind Pressure Humidity
    00:00 +5°C° 0 mm 4 mps 744 mmHg 77%
    01:00 +4°C° 0 mm 4 mps 744 mmHg 79%
    02:00 +4°C° 0 mm 4 mps 744 mmHg 80%
    03:00 +4°C° 0.1 mm 4 mps 744 mmHg 81%
    04:00 +3°C° 0.1 mm 5 mps 744 mmHg 82%
    05:00 +3°C° 0.1 mm 5 mps 743 mmHg 82%
    06:00 +3°C° 0.3 mm 5 mps 744 mmHg 85%
    07:00 +3°C° 0.3 mm 5 mps 744 mmHg 89%
    08:00 +3°C° 0.3 mm 5 mps 744 mmHg 92%
    09:00 +5°C° 0.1 mm 5 mps 744 mmHg 92%
    10:00 +5°C° 0.1 mm 5 mps 745 mmHg 91%
    11:00 +6°C° 0.1 mm 4 mps 745 mmHg 90%
    12:00 +7°C° 0 mm 4 mps 745 mmHg 84%
    13:00 +10°C° 0 mm 4 mps 745 mmHg 77%
    14:00 +12°C° 0 mm 4 mps 745 mmHg 70%
    15:00 +11°C° 0.5 mm 4 mps 745 mmHg 75%
    16:00 +10°C° 0.5 mm 5 mps 745 mmHg 80%
    17:00 +9°C° 0.5 mm 5 mps 745 mmHg 85%
    18:00 +10°C° 0.5 mm 4 mps 745 mmHg 87%
    19:00 +8°C° 0.5 mm 4 mps 745 mmHg 89%
    20:00 +9°C° 0.5 mm 3 mps 745 mmHg 91%
    21:00 +8°C° 0 mm 3 mps 745 mmHg 91%
    22:00 +6°C° 0 mm 4 mps 745 mmHg 91%
    23:00 +5°C° 0 mm 4 mps 745 mmHg 91%

    Day after tomorrow, 2 June, Tuesday

    Time Temperature Precipitation Wind Pressure Humidity
    00:00 +4°C° 0 mm 4 mps 745 mmHg 92%
    01:00 +4°C° 0 mm 4 mps 745 mmHg 93%
    02:00 +3°C° 0 mm 4 mps 745 mmHg 94%
    03:00 +4°C° 0 mm 4 mps 745 mmHg 93%
    04:00 +4°C° 0 mm 4 mps 745 mmHg 92%
    05:00 +3°C° 0 mm 5 mps 745 mmHg 91%
    06:00 +6°C° 0 mm 5 mps 745 mmHg 83%
    07:00 +8°C° 0 mm 5 mps 745 mmHg 76%
    08:00 +9°C° 0 mm 6 mps 745 mmHg 68%
    09:00 +10°C° 0 mm 6 mps 745 mmHg 65%
    10:00 +11°C° 0 mm 6 mps 745 mmHg 62%
    11:00 +13°C° 0 mm 6 mps 745 mmHg 60%
    12:00 +13°C° 0 mm 6 mps 745 mmHg 62%
    13:00 +11°C° 0 mm 6 mps 744 mmHg 64%
    14:00 +11°C° 0 mm 6 mps 744 mmHg 66%
    15:00 +12°C° 0 mm 5 mps 744 mmHg 69%
    16:00 +11°C° 0 mm 4 mps 744 mmHg 72%
    17:00 +11°C° 0 mm 4 mps 744 mmHg 74%
    18:00 +11°C° 0 mm 4 mps 744 mmHg 75%
    19:00 +10°C° 0 mm 4 mps 744 mmHg 76%
    20:00 +9°C° 0 mm 5 mps 743 mmHg 76%
    21:00 +9°C° 0 mm 5 mps 743 mmHg 79%
    22:00 +9°C° 0 mm 5 mps 743 mmHg 82%
    23:00 +8°C° 0 mm 5 mps 743 mmHg 85%

    3 June, Wednesday

    Time Temperature Precipitation Wind Pressure Humidity
    00:00 +8°C° 0 mm 5 mps 743 mmHg 86%
    01:00 +8°C° 0 mm 5 mps 742 mmHg 88%
    02:00 +8°C° 0 mm 5 mps 742 mmHg 89%
    03:00 +8°C° 1 mm 5 mps 742 mmHg 91%
    04:00 +8°C° 1 mm 5 mps 742 mmHg 93%
    05:00 +8°C° 1 mm 5 mps 741 mmHg 96%
    06:00 +8°C° 0.4 mm 5 mps 742 mmHg 96%
    07:00 +8°C° 0.4 mm 5 mps 742 mmHg 96%
    08:00 +10°C° 0.4 mm 4 mps 742 mmHg 96%
    09:00 +10°C° 0.3 mm 4 mps 742 mmHg 96%
    10:00 +10°C° 0.3 mm 4 mps 742 mmHg 96%
    11:00 +11°C° 0.3 mm 4 mps 742 mmHg 96%
    12:00 +11°C° 0.1 mm 4 mps 742 mmHg 95%
    13:00 +12°C° 0.1 mm 4 mps 742 mmHg 94%
    14:00 +13°C° 0.1 mm 4 mps 742 mmHg 93%
    15:00 +13°C° 0 mm 4 mps 742 mmHg 92%
    16:00 +13°C° 0 mm 4 mps 742 mmHg 92%
    17:00 +13°C° 0 mm 3 mps 741 mmHg 91%
    18:00 +13°C° 0 mm 4 mps 741 mmHg 92%
    19:00 +13°C° 0 mm 4 mps 741 mmHg 92%
    20:00 +13°C° 0 mm 4 mps 741 mmHg 92%
    21:00 +13°C° 0 mm 4 mps 741 mmHg 93%
    22:00 +13°C° 0 mm 4 mps 741 mmHg 93%
    23:00 +12°C° 0 mm 3 mps 741 mmHg 94%

    4 June, Thursday

    Time Temperature Precipitation Wind Pressure Humidity
    00:00 +12°C° 1.1 mm 3 mps 740 mmHg 95%
    01:00 +12°C° 1.1 mm 3 mps 740 mmHg 97%
    02:00 +12°C° 1.1 mm 3 mps 739 mmHg 98%
    03:00 +12°C° 1.9 mm 3 mps 739 mmHg 98%
    04:00 +13°C° 1.9 mm 4 mps 739 mmHg 98%
    05:00 +13°C° 1.9 mm 4 mps 738 mmHg 98%
    06:00 +13°C° 3.4 mm 4 mps 738 mmHg 98%
    07:00 +13°C° 3.4 mm 4 mps 738 mmHg 98%
    08:00 +13°C° 3.4 mm 3 mps 738 mmHg 98%
    09:00 +14°C° 0.2 mm 3 mps 738 mmHg 93%
    10:00 +17°C° 0.2 mm 3 mps 738 mmHg 88%
    11:00 +18°C° 0.2 mm 3 mps 738 mmHg 83%
    12:00 +19°C° 1.2 mm 3 mps 738 mmHg 85%
    13:00 +19°C° 1.2 mm 3 mps 738 mmHg 86%
    14:00 +19°C° 1.2 mm 4 mps 737 mmHg 88%
    15:00 +18°C° 2.2 mm 4 mps 737 mmHg 90%
    16:00 +17°C° 2.2 mm 4 mps 737 mmHg 93%
    17:00 +15°C° 2.2 mm 4 mps 737 mmHg 96%
    18:00 +16°C° 2.8 mm 3 mps 737 mmHg 96%
    19:00 +14°C° 2.8 mm 3 mps 736 mmHg 97%
    20:00 +15°C° 2.8 mm 2 mps 736 mmHg 98%
    21:00 +15°C° 1.7 mm 2 mps 736 mmHg 98%
    22:00 +14°C° 1.7 mm 2 mps 736 mmHg 98%
    23:00 +14°C° 1.7 mm 2 mps 736 mmHg 99%

    5 June, Friday

    Time Temperature Precipitation Wind Pressure Humidity
    00:00 +14°C° 0.9 mm 2 mps 735 mmHg 99%
    01:00 +14°C° 0.9 mm 2 mps 735 mmHg 99%
    02:00 +14°C° 0.9 mm 2 mps 735 mmHg 98%
    03:00 +14°C° 0.4 mm 2 mps 735 mmHg 98%
    04:00 +14°C° 0.4 mm 2 mps 735 mmHg 98%
    05:00 +13°C° 0.4 mm 2 mps 735 mmHg 98%
    06:00 +13°C° 1 mm 2 mps 735 mmHg 97%
    07:00 +13°C° 1 mm 2 mps 735 mmHg 97%
    08:00 +12°C° 1 mm 3 mps 735 mmHg 97%
    09:00 +13°C° 0.9 mm 3 mps 735 mmHg 95%
    10:00 +13°C° 0.9 mm 3 mps 735 mmHg 93%
    11:00 +14°C° 0.9 mm 2 mps 735 mmHg 91%
    12:00 +15°C° 0.3 mm 2 mps 735 mmHg 87%
    13:00 +16°C° 0.3 mm 2 mps 735 mmHg 83%
    14:00 +17°C° 0.3 mm 2 mps 734 mmHg 79%
    15:00 +18°C° 0.2 mm 1 mps 734 mmHg 79%
    16:00 +18°C° 0.2 mm 1 mps 734 mmHg 79%
    17:00 +18°C° 0.2 mm 1 mps 734 mmHg 79%
    18:00 +16°C° 0.1 mm 1 mps 734 mmHg 82%
    19:00 +15°C° 0.1 mm 1 mps 734 mmHg 86%
    20:00 +14°C° 0.1 mm 1 mps 734 mmHg 90%
    21:00 +13°C° 0 mm 1 mps 734 mmHg 91%
    22:00 +13°C° 0 mm 2 mps 734 mmHg 92%
    23:00 +12°C° 0 mm 2 mps 734 mmHg 94%
    Show more